Terminal Aerodrome Forecast
Issued by NWS Blacksburg, VA

Home | Current Version | Previous Version | Text Only | Print | Product List | Glossary On
Versions: 1 2 3 4 5 6 7 8 9 10 11 12 13 14 15 16 17 18 19 20 21 22 23 24
000
FTUS41 KRNK 311140
TAFROA
TAF
KROA 311140Z 3112/0112 26003KT P6SM BKN120
      TEMPO 3112/3114 -SHRA
     FM311800 16004KT P6SM BKN060
     FM010000 12004KT P6SM BKN250=

USA.gov is the U.S. government's official web portal to all federal, state and local government web resources and services.